sat.trackr.live / text

‹ back to catalog

STARLINK-31492

NORAD 59212 · 2024-046M

PAYLOAD ACTIVE UNKNOWN

§ Identity

Operator
Country
US
Launch date
2024-03-11
Launch site
AFWTR
Launch vehicle
Mass (kg)
RCS (m²)

Purposes: comms

External: N2YO · Heavens-Above · Gunter

§ Orbital elements

Epoch: 2026-05-25T00:45:57.551904Z

Period
94.11 min
Inclination
53.1596°
Eccentricity
0.0001183
Mean motion
15.30192517 rev/d
Perigee alt
474.4 km
Apogee alt
476.0 km
Semi-major
6,853.4 km
B*
3.7063e-5
RAAN
161.0312°
Arg perigee
86.4406°
Mean anomaly
273.6730°
Rev number
12,472

§ Raw data

STARLINK-314921 59212U 24046M   26145.03191611  .00000738  00000+0  37063-4 0  99952 59212  53.1596 161.0312 0001183  86.4406 273.6730 15.30192517124723

JSON: /api/v1/satellites/59212 · /tle

For live sub-satellite position, see the globe view (requires WebGL).

§ Visibility from observer

Set your observer location to see the next 7 days of passes ≥ 10°. The values pass through the URL so the page stays shareable.

No JS? Fill the form by hand. The geolocation button needs JavaScript.